Starlink 31335

operational
NORAD ID: 58969 Int'l Des: 2024-031 Owner: SPXS Country: US Constellation: starlink
LEOCIRCULAR

About Starlink 31335

Description loading...

Live Position

Loading 3D Globe...

Upcoming Passes

Altitude History

Altitude vs Time

uPlot chart will show altitude changes over time

Two-Line Element Set

1 58969U 24031E 25258.59453851 .00008453 00000-0 29713-3 0 9994
2 58969 53.1599 27.2792 0000942 107.6702 252.4402 15.30208032 89761
Epoch: Sep 15, 2025 • Age: 9 hours

Current Status

Altitude 475.5 km
Velocity 7.63 km/s
Sub-Earth Point 8.28°N, 40.7°E
Launch Date Feb 15, 2024
Age 1.5 years
Type internet

Technical Details

Classification Payload
Mass 730.00 kg
Dry Mass 700.00 kg
Total Mass 730.00 kg
Length 0.30 m
Diameter 4.10 m
Span 29.00 m
Shape Box + pan
Manufacturer SPXS
Bus Type Starlink V2M
Phase Status In Orbit
Owner/State SPXS/US

Large Constellations

Loading constellations...